Weather History for West Palm Beach, FL

Change the Weather History Date:

Saturday, December 24, 2011

  Actual Average Record
Temperature  
Mean Temperature 75 °F 67 °F  
Max Temperature 80 °F 75 °F 88 °F (1941)
Min Temperature 69 °F 59 °F 28 °F (1989)
Degree Days  
Heating Degree Days 0 2  
Month to date heating degree days 2 38  
Since 1 July heating degree days 3 50  
Cooling Degree Days 10 4  
Month to date cooling degree days 202 127  
Year to date cooling degree days 4772 3993  
Growing Degree Days 24 (Base 50)    
Moisture  
Dew Point 68 °F    
Average Humidity 80    
Maximum Humidity 97    
Minimum Humidity 62    
Precipitation  
Precipitation 0.26 in 0.11 in 1.76 in (1945)
Month to date precipitation 0.70 2.60  
Year to date precipitation 47.69 61.55  
Snow  
Snow 0.00 in - - ()
Month to date snowfall 0.0  
Since 1 July snowfall 0.0  
Snow Depth 0.00 in    
Sea Level Pressure  
Sea Level Pressure 30.19 in    
Wind  
Wind Speed 5 mph (East)    
Max Wind Speed 13 mph    
Max Gust Speed 18 mph    
Visibility 10 miles    
Events Rain    
T = Trace of Precipitation, MM = Missing Value Source: NWS Daily Summary

Daily Weather History Graph

Daily Weather History Graph

Search for Another Location

Airport:

Trip Planner

Search our weather history database for the weather conditions in past years. The results will help you decide how hot, cold, wet, or windy it might be!

Date:

Astronomy

Dec. 24, 2011 Rise Set
Actual Time 7:05 AM EST 5:33 PM EST
Civil Twilight 6:40 AM EST 5:59 PM EST
Nautical Twilight 6:11 AM EST 6:28 PM EST
Astronomical Twilight 5:43 AM EST 6:56 PM EST
Moon 6:52 AM EST (12/24) 5:44 PM EST (12/24)
Length of Visible Light 11h 18m
Length of Day
10h 27m
Waning Crescent, 0% of the Moon is Illuminated
Dec 24
Waning Crescent
Dec 24
New
Jan 1
First Quarter
Jan 9
Full
Jan 16
Last Quarter

Hourly Weather History & Observations

Time (EST) Temp. Dew Point Humidity Pressure Visibility Wind Dir Wind Speed Gust Speed Precip Events Conditions
12:53 AM 71.1 °F 68.0 °F 90% 30.15 in 10.0 mi Calm Calm - N/A   Mostly Cloudy
1:53 AM 70.0 °F 68.0 °F 93% 30.14 in 10.0 mi Calm Calm - N/A   Mostly Cloudy
2:53 AM 71.1 °F 68.0 °F 90% 30.14 in 10.0 mi Calm Calm - N/A   Mostly Cloudy
3:53 AM 71.1 °F 68.0 °F 90% 30.14 in 10.0 mi South 3.5 mph - N/A   Mostly Cloudy
4:00 AM 71.6 °F 69.8 °F 94% 30.14 in 10.0 mi South 3.5 mph - N/A   Overcast
4:07 AM 71.6 °F 69.8 °F 94% 30.14 in 10.0 mi SW 3.5 mph - N/A   Overcast
4:53 AM 70.0 °F 68.0 °F 93% 30.15 in 10.0 mi NW 3.5 mph - N/A   Mostly Cloudy
5:53 AM 71.1 °F 68.0 °F 90% 30.15 in 10.0 mi Calm Calm - N/A   Mostly Cloudy
6:53 AM 71.1 °F 69.1 °F 93% 30.17 in 4.0 mi East 6.9 mph - 0.00 in Rain Rain
7:12 AM 71.6 °F 69.8 °F 94% 30.18 in 9.0 mi Calm Calm - 0.17 in Rain Light Rain
7:53 AM 72.0 °F 70.0 °F 93% 30.19 in 10.0 mi Calm Calm - 0.17 in   Mostly Cloudy
8:53 AM 72.0 °F 69.1 °F 91% 30.22 in 10.0 mi Calm Calm - 0.09 in   Mostly Cloudy
9:43 AM 73.4 °F 69.8 °F 88% 30.23 in 10.0 mi Calm Calm - N/A   Mostly Cloudy
9:53 AM 73.9 °F 70.0 °F 87% 30.23 in 10.0 mi Calm Calm - N/A   Mostly Cloudy
10:53 AM 78.1 °F 70.0 °F 76% 30.23 in 10.0 mi Calm Calm - N/A   Mostly Cloudy
11:53 AM 78.1 °F 68.0 °F 71% 30.21 in 10.0 mi ENE 6.9 mph - N/A   Mostly Cloudy
12:53 PM 78.1 °F 66.9 °F 68% 30.18 in 10.0 mi ESE 6.9 mph - N/A   Scattered Clouds
1:53 PM 79.0 °F 66.0 °F 64% 30.17 in 10.0 mi East 8.1 mph - N/A   Scattered Clouds
2:53 PM 79.0 °F 64.9 °F 62% 30.16 in 10.0 mi ENE 8.1 mph - N/A   Scattered Clouds
3:53 PM 79.0 °F 64.9 °F 62% 30.17 in 10.0 mi ENE 8.1 mph - N/A   Partly Cloudy
4:53 PM 77.0 °F 66.9 °F 71% 30.17 in 10.0 mi ENE 10.4 mph - N/A   Scattered Clouds
5:53 PM 75.0 °F 66.9 °F 76% 30.19 in 10.0 mi NE 9.2 mph - N/A   Scattered Clouds
6:53 PM 75.0 °F 66.9 °F 76% 30.21 in 10.0 mi ENE 6.9 mph - N/A   Partly Cloudy
7:53 PM 75.0 °F 66.0 °F 73% 30.22 in 10.0 mi ENE 9.2 mph - N/A   Partly Cloudy
8:53 PM 73.9 °F 66.9 °F 79% 30.22 in 10.0 mi ENE 9.2 mph - N/A   Partly Cloudy
9:53 PM 73.9 °F 66.9 °F 79% 30.23 in 10.0 mi ENE 10.4 mph - N/A   Partly Cloudy
10:53 PM 73.9 °F 66.9 °F 79% 30.23 in 10.0 mi East 9.2 mph - N/A   Scattered Clouds
11:53 PM 73.9 °F 66.9 °F 79% 30.22 in 10.0 mi East 10.4 mph - N/A   Scattered Clouds